Meteo Giornale » Osservazioni meteo Italia » Trieste

ore: 04:55 - Osservazioni Meteo Trieste
Lat. 45° 39' N Lon. 13° 45' E Alt. 8 metri s.l.m.

sereno Europe/Rome

22 °C

Sereno

Temp. 24 Ore

21 °C

29 °C

Nord

0 Km/h

Dew point 21 °C

Umidità 94 %

Visibilità  10 Km

Il sole sorge alle ore 06:10

Il sole tramonta alle ore 20:06

Data e Ora Cielo e Fenomeni T °C DP °C Um. % Pres. hPa Vis. km Vento km/h
Oggi h: 04:55 sereno Sereno 22 21 94 1016 10 N 0
Oggi h: 03:55 sereno Sereno 22 21 94 1016 10 N 0
Oggi h: 02:55 sereno Sereno 23 21 88 1016 10 N 0
Oggi h: 01:55 sereno Sereno 23 20 83 1016 10 N 1.8
Oggi h: 00:55 sereno Sereno 23 21 88 1016 10 N 1.8
Ieri h: 23:55 sereno Sereno 24 20 78 1016 10 N 3.7
Ieri h: 22:55 sereno Sereno 24 21 83 1016 10 N 0
Ieri h: 21:55 sereno Sereno 25 21 78 1016 10 N 3.7
Ieri h: 20:55 sereno Sereno 25 22 83 1015 10 N 0
Ieri h: 19:55 sereno Sereno 27 24 83 1014 10 N 0
Ieri h: 18:55 sereno Sereno 27 22 74 1014 10 N 0
Ieri h: 17:55 sereno Sereno 28 22 69 1015 10 N 1.8
Ieri h: 16:55 sereno Sereno 29 22 66 1014 10 N 1.8
Ieri h: 15:55 sereno Sereno 29 22 66 1016 10 N 1.8
Ieri h: 14:55 sereno Sereno 28 21 65 1016 10 N 5.5
Ieri h: 13:55 sereno Sereno 27 21 69 1016 10 N 1.8
Ieri h: 12:55 sereno Sereno 27 20 65 1015 10 N 1.8
Ieri h: 11:55 sereno Sereno 27 19 61 1016 10 N 0
Ieri h: 10:55 sereno Sereno 26 20 69 1016 10 N 0
Ieri h: 08:55 sereno Sereno 24 20 78 1015 10 N 0
Ieri h: 07:55 sereno Sereno 23 19 78 1015 10 N 0
Ieri h: 06:55 sereno Sereno 22 17 73 1014 10 N 0
Ieri h: 05:55 sereno Sereno 21 17 77 1015 10 N 0